LIPZLIBD

Guest
Details From LIPZ - Venezia Tessera
To LIBD - Bari Palese Macchie
Flight Number -
Tags generated
Created
Modified
Stats Distance 333 nm / 616 km
Max Altitude 35,000 ft / 10,668 m
Waypoints 7
Social Downloads 0
Likes 0
Share VATSIM

Download

Looking for another format? Having issues loading an existing format? Contact us
Advertisement - Login to hide

Notes

Basic altitude profile: - Ascent Rate: 2500ft/min - Ascent Speed: 250kts - Cruise Altitude: 35000ft - Cruise Speed: 420kts - Descent Rate: 1500ft/min - Descent Speed: 250kts Options: - Use NATs: yes - Use PACOTS: yes - Use low airways: yes - Use high airways: no

Route

LIPZ LANLI L612 POLYP LIBD

ID Type Via Altitude (ft/m) Position (lat/lon) Dist (leg/tot) Name
O LIPZ APT - 0 / 0 45.50479 / 12.34969 - / 0 nm Venezia Tessera
LANLI FIX - 35,000 / 10,668 43.95722 / 13.18056 99 / 99 nm
ANC VOR L612 (AWY-LO) 35,000 / 10,668 43.58639 / 13.47111 25 / 125 nm ANCONA VOR-DME
NUTRO FIX L612 (AWY-LO) 35,000 / 10,668 43.16000 / 14.14917 39 / 164 nm
ARPIK FIX L612 (AWY-LO) 28,000 / 8,534 42.74694 / 14.79222 37 / 201 nm
POLYP FIX L612 (AWY-LO) 22,800 / 6,949 42.47833 / 15.20250 24 / 226 nm
O LIBD APT - 0 / 0 41.13787 / 16.75832 106 / 332 nm Bari Palese Macchie

Altitude Profile

Advertisement - Login to hide

Weather


0- 5 10 15 20 25 30 35+ Temperature / °C

Clouds and Precipitation
Forecast for 2019-01-20 18:00 UTC. Updated 4 hours ago

Ground ~20,000 ft ~40,000 ft Winds

LIPZ

Details ICAO LIPZ (VCE)
Name Venice Marco Polo
Region Italy
Timezone Europe/Rome (UTC+1.0)
Stats Elevation 4 ft / 1 m (AMSL)
Location 45.504800° 12.349700°
Runways 2
Magnetic Variation 3.305° E

METAR

LIPZ 201920Z VRB02KT 9999 BKN070 04/M02 Q1016 NOSIG

Decode

TAF

TAF LIPZ 201700Z 2018/2124 03007KT 9999 SCT020

Decode

Departure Runways

ID Width Length Bearing (true/mag) Surface Threshold Overrun Markings Lighting
04L 148 ft / 45 m 9,129 ft / 2,782 m 42.03° / 38.73° ASPHALT 318 ft / 97 m 0 ft / 0 m PREC-APP CENTERLINE EDGE THRESHOLD MALSR REIL-OMNI
04R 148 ft / 45 m 10,836 ft / 3,303 m 42.03° / 38.72° ASPHALT 0 ft / 0 m 0 ft / 0 m PREC-APP CENTERLINE EDGE THRESHOLD SSALR REIL-OMNI
22L 148 ft / 45 m 10,836 ft / 3,303 m 222.05° / 218.74° ASPHALT 0 ft / 0 m 0 ft / 0 m PREC-APP CENTERLINE EDGE THRESHOLD SALS REIL-OMNI
22R 148 ft / 45 m 9,129 ft / 2,782 m 222.05° / 218.74° ASPHALT 0 ft / 0 m 0 ft / 0 m PREC-APP CENTERLINE EDGE THRESHOLD SALS REIL-OMNI

LIBD

Details ICAO LIBD (BRI)
Name Bari Karol Wojtyla Airport
Region Italy
Timezone Europe/Rome (UTC+1.0)
Stats Elevation 174 ft / 53 m (AMSL)
Location 41.137900° 16.758300°
Runways 1
Magnetic Variation 3.850° E

METAR

LIBD 201920Z 22005KT CAVOK 06/04 Q1014

Decode

TAF

TAF LIBD 201700Z 2018/2118 17010KT 9999 SCT030= TAF LIBP 201700Z 2018/2118 VRB05KT 9999 SCT030 TEMPO 2018/2024 RA BECMG 2107/2109 34010KT TEMPO 2109/2118 RA

Decode

Destination Runways

ID Width Length Bearing (true/mag) Surface Threshold Overrun Markings Lighting
07 148 ft / 45 m 9,260 ft / 2,823 m 69.39° / 65.54° CONCRETE 1,220 ft / 372 m 0 ft / 0 m PREC-APP CENTERLINE EDGE THRESHOLD ALSF-II REIL-OMNI
25 148 ft / 45 m 9,260 ft / 2,823 m 249.41° / 245.56° CONCRETE 0 ft / 0 m 0 ft / 0 m PREC-APP CENTERLINE EDGE THRESHOLD SALS

Approach Navaids

Runway Type Ident Frequency Range Bearing (true/mag) Slope Elevation
07 OM OM - - 69.25° / 65.40 ° - 177 ft / 54 m (AMSL)
07 LOC-ILS BAP 111.35 MHz 18 nm / 33 km 69.39° / 65.54 ° - 175 ft / 53 m (AMSL)
07 DME BAP 111.35 MHz 18 nm / 33 km - - 183 ft / 56 m (AMSL)
07 GS BAP 111.35 MHz 10 nm / 19 km 69.39° / 65.54 ° 3.32° 175 ft / 53 m (AMSL)

Popular Alternatives